Regional Weather Roundup
Issued by NWS

Home | Current Version | Previous Version | Text Only | Print | Product List | Glossary On
Versions: 1 2 3 4 5 6 7 8 9 10 11 12 13 14 15 16 17 18 19 20 21 22 23 24 25 26 27 28 29 30 31 32 33 34 35 36 37 38 39 40 41 42 43 44 45 46 47 48 49 50
000
ASUS45 KSLC 221710
RWRUT

UTAH REGIONAL WEATHER ROUNDUP
NATIONAL WEATHER SERVICE SALT LAKE CITY UT
1000 AM MST WED NOV 22 2017

UTZ001>011-023>025-221800-

NORTHERN UTAH

CITY           SKY/WX    TMP DP  RH WIND       PRES   REMARKS
BRIGHAM CITY   CLOUDY    52  39  62 CALM      30.46R
DUGWAY         MOSUNNY   52  38  58 S2        30.45R
HILL AFB       PTSUNNY   52  38  59 E9        30.44S
LOGAN          CLOUDY    51  42  71 CALM      30.43R
OGDEN          PTSUNNY   53  40  61 S3        30.43S
SALT LAKE CITY PTSUNNY   54  40  59 SE3       30.44R
TOOELE VALLEY  SUNNY     52  45  76 NE5       30.44S
WENDOVER       SUNNY     46  38  73 E6        30.45
HEBER CITY       N/A     37  36  93 CALM      30.50R
WEST JORDAN    SUNNY     54  40  59 S12       30.45S

$$

UTZ011>015-024>027-221800-

CENTRAL/NORTHEAST UTAH

CITY           SKY/WX    TMP DP  RH WIND       PRES   REMARKS
PROVO AIRPORT  SUNNY     48  39  71 CALM      30.48S
MOAB/CANYONLAN SUNNY     48  17  29 CALM      30.46S
DELTA          SUNNY     46  32  57 CALM      30.47S
PRICE          SUNNY     48  23  37 CALM      30.47S
RICHFIELD      SUNNY     45  37  76 CALM      30.52S
ROOSEVELT      CLOUDY    46  30  53 CALM      30.50S
VERNAL         CLOUDY    48  32  53 W3        30.47S

$$

UTZ013>016-019>022-027-221800-

SOUTHERN UTAH

CITY           SKY/WX    TMP DP  RH WIND       PRES   REMARKS
BRYCE CANYON   SUNNY     48  33  56 CALM      30.54R
CEDAR CITY     SUNNY     50  36  58 E5        30.47R
MILFORD        SUNNY     45  35  68 SW5       30.46S
ST GEORGE      SUNNY     52  25  35 SE3       30.40R
HANKSVILLE     SUNNY     41  14  33 CALM      30.49F
KANAB          SUNNY     57  34  41 NE2       30.46S
BLANDING         N/A     55  31  39 CALM      30.51S

$$

REGIONAL REPORTS     COLORADO/ARIZONA

CITY           SKY/WX    TMP DP  RH WIND       PRES   REMARKS
CRAIG, CO      CLOUDY    41  35  79 W5        30.49R
GRAND JUNCTION CLOUDY    47  33  58 SE14      30.48F
RIFLE, CO      CLOUDY    40  34  79 CALM      30.52R
MONTROSE, CO   CLOUDY    46  30  53 CALM      30.52F
CORTEZ, CO     CLOUDY    51  29  42 CALM      30.43F
COLORADO CITY    N/A     59  34  38 SE3       30.45R
PAGE, AZ       SUNNY     50  25  37 W3        30.44S
GRAND CANYON   SUNNY     60  33  36 NE8       30.49R
KINGMAN, AZ    SUNNY     65  26  23 N6        30.33S
FLAGSTAFF, AZ  SUNNY     56  31  38 E12       30.49R

$$

REGIONAL REPORTS    NEVADA/IDAHO/WYOMING

CITY           SKY/WX    TMP DP  RH WIND       PRES   REMARKS
LAS VEGAS, NV  SUNNY     66  35  31 CALM      30.30S
ELY, NY        SUNNY     47  35  63 S12       30.49F
ELKO, NV       FOG       37  36  96 S3        30.47R VSB 1/4
POCATELLO, ID  CLOUDY    44  42  93 N3        30.39R
BURLEY, ID     MOSUNNY   57  46  66 SW9       30.34S
FORT BRIDGER,  PTSUNNY   49  41  73 SW9       30.51S
EVANSTON, WY   CLOUDY    47  39  74 SW10      30.49R
ROCK SPRINGS,  CLOUDY    46  37  71 SW17      30.46R
KEMMERER, WY   CLOUDY    43  36  75 SW5       30.48S

$$



USA.gov is the U.S. government's official web portal to all federal, state and local government web resources and services.